| time (UTC) | temp F | wind direction | speed MPH | gust MPH | rain 1hr in | rain 24hr in | rain mn in | humidity % | barometer mb |
| 20260504044539 | 63 | 130 | 2.0 | 6.0 | 0.00 | 0.00 | 0.00 | 66 | 1017.9 |
| 20260504043044 | 64 | 128 | 3.0 | 6.0 | 0.00 | 0.00 | 0.00 | 65 | 1018.0 |
| 20260504041537 | 64 | 117 | 2.0 | 7.0 | 0.00 | 0.00 | 0.00 | 64 | 1017.9 |
| 20260504040037 | 64 | 126 | 2.0 | 5.0 | 0.00 | 0.00 | 0.00 | 63 | 1018.2 |
| 20260504034539 | 64 | 123 | 2.0 | 8.0 | 0.00 | 0.00 | 0.00 | 62 | 1018.1 |
| 20260504033040 | 64 | 124 | 1.0 | 7.0 | 0.00 | 0.00 | 0.00 | 62 | 1018.0 |
| 20260504031535 | 64 | 128 | 2.0 | 5.0 | 0.00 | 0.00 | 0.00 | 59 | 1017.9 |
| 20260504030039 | 64 | 132 | 1.0 | 4.0 | 0.00 | 0.00 | 0.00 | 56 | 1017.9 |
| 20260504024535 | 65 | 132 | 0.0 | 1.0 | 0.00 | 0.00 | 0.00 | 57 | 1017.8 |
| 20260504023034 | 65 | 132 | 1.0 | 3.0 | 0.00 | 0.00 | 0.00 | 53 | 1017.7 |
| 20260504021536 | 66 | 132 | 0.0 | 1.0 | 0.00 | 0.00 | 0.00 | 53 | 1017.8 |
| 20260504020040 | 66 | 132 | 0.0 | 3.0 | 0.00 | 0.00 | 0.00 | 51 | 1017.7 |
| 20260504014538 | 67 | 132 | 0.0 | 3.0 | 0.00 | 0.00 | 0.00 | 50 | 1017.6 |
| 20260504013036 | 68 | 132 | 0.0 | 2.0 | 0.00 | 0.00 | 0.00 | 48 | 1017.4 |
| 20260504011533 | 69 | 132 | 1.0 | 4.0 | 0.00 | 0.00 | 0.00 | 45 | 1017.3 |
| 20260504010030 | 70 | 132 | 1.0 | 5.0 | 0.00 | 0.00 | 0.00 | 44 | 1017.2 |
| 20260504004529 | 71 | 132 | 1.0 | 7.0 | 0.00 | 0.00 | 0.00 | 43 | 1017.1 |
| 20260504003028 | 72 | 132 | 1.0 | 5.0 | 0.00 | 0.00 | 0.00 | 42 | 1017.4 |
| 20260504001527 | 72 | 132 | 1.0 | 7.0 | 0.00 | 0.00 | 0.00 | 40 | 1017.5 |
| 20260504000026 | 73 | 134 | 1.0 | 7.0 | 0.00 | 0.00 | 0.00 | 36 | 1017.6 |
| 20260503234526 | 73 | 131 | 2.0 | 8.0 | 0.00 | 0.00 | 0.00 | 36 | 1017.8 |
| 20260503233022 | 74 | 141 | 2.0 | 11.0 | 0.00 | 0.00 | 0.00 | 36 | 1017.9 |
| 20260503231523 | 74 | 134 | 1.0 | 8.0 | 0.00 | 0.00 | 0.00 | 36 | 1017.8 |
| 20260503230025 | 75 | 140 | 2.0 | 10.0 | 0.00 | 0.00 | 0.00 | 35 | 1018.0 |
| 20260503224519 | 75 | 138 | 2.0 | 7.0 | 0.00 | 0.00 | 0.00 | 35 | 1017.8 |
| 20260503223017 | 76 | 119 | 2.0 | 8.0 | 0.00 | 0.00 | 0.00 | 36 | 1017.9 |
| 20260503221514 | 76 | 132 | 2.0 | 11.0 | 0.00 | 0.00 | 0.00 | 38 | 1018.3 |
| 20260503220013 | 76 | 127 | 0.0 | 6.0 | 0.00 | 0.00 | 0.00 | 35 | 1018.5 |
| 20260503214532 | 77 | 114 | 1.0 | 5.0 | 0.00 | 0.00 | 0.00 | 35 | 1018.8 |
| 20260503213009 | 78 | 123 | 1.0 | 13.0 | 0.00 | 0.00 | 0.00 | 32 | 1019.1 |
| 20260503211507 | 78 | 143 | 3.0 | 9.0 | 0.00 | 0.00 | 0.00 | 38 | 1019.0 |
| 20260503210005 | 78 | 134 | 0.0 | 7.0 | 0.00 | 0.00 | 0.00 | 35 | 1019.5 |
| 20260503204502 | 77 | 119 | 4.0 | 9.0 | 0.00 | 0.00 | 0.00 | 36 | 1019.9 |
| 20260503203059 | 78 | 145 | 1.0 | 7.0 | 0.00 | 0.00 | 0.00 | 32 | 1020.2 |
| 20260503201556 | 78 | 132 | 2.0 | 9.0 | 0.00 | 0.00 | 0.00 | 38 | 1020.4 |
| 20260503200101 | 78 | 138 | 1.0 | 8.0 | 0.00 | 0.00 | 0.00 | 31 | 1020.7 |
| 20260503194601 | 78 | 147 | 1.0 | 5.0 | 0.00 | 0.00 | 0.00 | 33 | 1021.0 |
| 20260503193058 | 78 | 128 | 5.0 | 12.0 | 0.00 | 0.00 | 0.00 | 34 | 1021.0 |
| 20260503191549 | 78 | 106 | 4.0 | 12.0 | 0.00 | 0.00 | 0.00 | 41 | 1021.2 |
| 20260503190048 | 77 | 134 | 2.0 | 8.0 | 0.00 | 0.00 | 0.00 | 40 | 1021.3 |
| 20260503184551 | 77 | 155 | 2.0 | 10.0 | 0.00 | 0.00 | 0.00 | 35 | 1021.6 |
| 20260503183042 | 76 | 136 | 1.0 | 8.0 | 0.00 | 0.00 | 0.00 | 38 | 1022.0 |
| 20260503181547 | 75 | 144 | 3.0 | 8.0 | 0.00 | 0.00 | 0.00 | 37 | 1022.3 |
| 20260503180047 | 76 | 144 | 2.0 | 8.0 | 0.00 | 0.00 | 0.00 | 38 | 1022.5 |
| 20260503174543 | 75 | 138 | 2.0 | 10.0 | 0.00 | 0.00 | 0.00 | 37 | 1022.9 |
| 20260503173038 | 75 | 123 | 1.0 | 10.0 | 0.00 | 0.00 | 0.00 | 39 | 1023.1 |
| 20260503171524 | 75 | 132 | 5.0 | 9.0 | 0.00 | 0.00 | 0.00 | 40 | 1023.3 |
| 20260503150106 | 67 | 117 | 0.0 | 5.0 | 0.00 | 0.00 | 0.00 | 57 | 1023.9 |
| 20260503081553 | 52 | 82 | 0.0 | 0.0 | 0.00 | 0.00 | 0.00 | 74 | 1021.9 |
| 20260503071546 | 54 | 82 | 0.0 | 0.0 | 0.00 | 0.00 | 0.00 | 73 | 1022.4 |
| 20260503054535 | 55 | 82 | 0.0 | 0.0 | 0.00 | 0.00 | 0.00 | 70 | 1022.6 |